Afton Municipal Airport, WY

11:59 AM MST on December 08, 2019 (GMT -0700)
Afton Municipal

Weather History for KAFO - October, 2019

Change the Weather History Date:

Tuesday, October 15, 2019

  Actual Average Record
Temperature  
Mean Temperature 39 °F -  
Max Temperature 59 °F 55 °F 71 °F (2015)
Min Temperature 19 °F 24 °F 12 °F (2018)
Degree Days  
Heating Degree Days 26    
Moisture  
Dew Point 21 °F    
Average Humidity 58    
Maximum Humidity 93    
Minimum Humidity 20    
Precipitation  
Precipitation 0.00 in - - ()
Sea Level Pressure  
Sea Level Pressure 30.26 in    
Wind  
Wind Speed 2 mph ()    
Max Wind Speed 10 mph    
Max Gust Speed -    
Visibility 9.9 miles    
Events      
Averages and records for this station are not official NWS values.
T = Trace of Precipitation, MM = Missing Value Source: Averaged Metar Reports

Daily Weather History Graph

Daily Weather History Graph

Search for Another Location

Airport or City:

Astronomy

Oct. 15, 2019 Rise Set
Actual Time 7:36 AM MDT 6:41 PM MDT
Civil Twilight 7:08 AM MDT 7:10 PM MDT
Nautical Twilight 6:35 AM MDT 7:42 PM MDT
Astronomical Twilight 6:02 AM MDT 8:15 PM MDT
Moon 8:01 PM MDT (10/15) 9:12 AM MDT (10/15)
Length of Visible Light 12h 01m
Length of Day
11h 04m
Full, 97% of the Moon is Illuminated
Oct 15
Full
Oct 21
Last Quarter
Oct 27
New
Nov 4
First Quarter
Nov 12
Full

Hourly Weather History & Observations

Time (MDT) Temp. Windchill Dew Point Humidity Pressure Visibility Wind Dir Wind Speed Gust Speed Precip Events Conditions
12:15 AM 28.4 °F 23.3 °F 19.4 °F 69% 30.18 in 10.0 mi South 4.6 mph - N/A   Clear
12:35 AM 28.4 °F - 19.4 °F 69% 30.18 in 10.0 mi Calm Calm - N/A   Clear
12:55 AM 28.4 °F 23.3 °F 19.4 °F 69% 30.20 in 10.0 mi WSW 4.6 mph - N/A   Clear
1:15 AM 28.4 °F - 19.4 °F 69% 30.20 in 10.0 mi Calm Calm - N/A   Clear
1:35 AM 24.8 °F - 19.4 °F 80% 30.21 in 10.0 mi Calm Calm - N/A   Clear
1:55 AM 24.8 °F - 19.4 °F 80% 30.22 in 10.0 mi Calm Calm - N/A   Clear
2:15 AM 28.4 °F - 19.4 °F 69% 30.23 in 10.0 mi Calm Calm - N/A   Clear
2:35 AM 28.4 °F - 19.4 °F 69% 30.23 in 10.0 mi Calm Calm - N/A   Clear
2:55 AM 23.0 °F - 17.6 °F 80% 30.24 in 10.0 mi Calm Calm - N/A   Clear
3:15 AM 24.8 °F - 17.6 °F 74% 30.24 in 10.0 mi Calm Calm - N/A   Clear
3:35 AM 24.8 °F - 17.6 °F 74% 30.25 in 10.0 mi Calm Calm - N/A   Clear
4:15 AM 23.0 °F - 17.6 °F 80% 30.25 in 10.0 mi Calm Calm - N/A   Clear
4:35 AM 23.0 °F - 17.6 °F 80% 30.24 in 10.0 mi Calm Calm - N/A   Clear
4:55 AM 21.2 °F - 17.6 °F 86% 30.25 in 10.0 mi Calm Calm - N/A   Clear
5:15 AM 21.2 °F - 17.6 °F 86% 30.23 in 10.0 mi Calm Calm - N/A   Clear
5:35 AM 21.2 °F - 17.6 °F 86% 30.23 in 10.0 mi North - - N/A   Clear
5:55 AM 21.2 °F - 19.4 °F 93% 30.24 in 10.0 mi North - - N/A   Clear
6:15 AM 21.2 °F - 17.6 °F 86% 30.25 in 10.0 mi North - - N/A   Clear
6:35 AM 19.4 °F 14.3 °F 15.8 °F 86% 30.25 in 10.0 mi SSW 3.5 mph - N/A   Clear
6:55 AM 19.4 °F 12.8 °F 17.6 °F 93% 30.26 in 10.0 mi South 4.6 mph - N/A   Clear
7:15 AM 21.2 °F - 17.6 °F 86% 30.28 in 10.0 mi Calm Calm - N/A   Clear
7:35 AM 23.0 °F - 17.6 °F 80% 30.28 in 10.0 mi Calm Calm - N/A   Clear
7:55 AM 21.2 °F - 15.8 °F 80% 30.28 in 10.0 mi Calm Calm - N/A   Clear
8:15 AM 21.2 °F - 17.6 °F 86% 30.29 in 10.0 mi Calm Calm - N/A   Clear
8:35 AM 23.0 °F - 19.4 °F 86% 30.30 in 10.0 mi Calm Calm - N/A   Clear
8:55 AM 26.6 °F - 21.2 °F 80% 30.31 in 10.0 mi Calm Calm - N/A   Clear
9:15 AM 30.2 °F - 21.2 °F 69% 30.31 in 10.0 mi Calm Calm - N/A   Clear
9:35 AM 32.0 °F - 23.0 °F 69% 30.32 in 10.0 mi Calm Calm - N/A   Clear
9:55 AM 33.8 °F - 23.0 °F 65% 30.32 in 10.0 mi Calm Calm - N/A   Clear
10:15 AM 35.6 °F - 24.8 °F 65% 30.31 in 10.0 mi Calm Calm - N/A   Clear
10:35 AM 37.4 °F - 24.8 °F 60% 30.31 in 10.0 mi Calm Calm - N/A   Clear
10:55 AM 41.0 °F - 26.6 °F 57% 30.31 in 10.0 mi Calm Calm - N/A   Clear
11:15 AM 42.8 °F - 26.6 °F 53% 30.31 in 10.0 mi Calm Calm - N/A   Clear
11:35 AM 44.6 °F - 26.6 °F 49% 30.29 in 10.0 mi Calm Calm - N/A   Clear
11:55 AM 46.4 °F 45.2 °F 26.6 °F 46% 30.29 in 10.0 mi NW 3.5 mph - N/A   Clear
12:15 PM 50.0 °F - 26.6 °F 40% 30.28 in 10.0 mi Calm Calm - N/A   Clear
12:35 PM 53.6 °F - 26.6 °F 35% 30.28 in 10.0 mi Calm Calm - N/A   Clear
12:55 PM 55.4 °F - 21.2 °F 26% 30.27 in 10.0 mi Calm Calm - N/A   Clear
1:15 PM 59.0 °F - 17.6 °F 20% 30.27 in 10.0 mi Calm Calm - N/A   Clear
1:35 PM 59.0 °F - 17.6 °F 20% 30.27 in 10.0 mi Calm Calm - N/A   Clear
1:55 PM 57.2 °F - 17.6 °F 21% 30.27 in 10.0 mi Calm Calm - N/A   Clear
2:15 PM 59.0 °F - 17.6 °F 20% 30.27 in 10.0 mi NNW 3.5 mph - N/A   Clear
2:35 PM 59.0 °F - 17.6 °F 20% 30.26 in 4.0 mi NE 3.5 mph - N/A   Haze
2:55 PM 59.0 °F - 17.6 °F 20% 30.25 in 10.0 mi NE 3.5 mph - N/A   Clear
3:15 PM 59.0 °F - 17.6 °F 20% 30.25 in 10.0 mi Calm Calm - N/A   Clear
3:35 PM 59.0 °F - 17.6 °F 20% 30.25 in 10.0 mi North 8.1 mph - N/A   Clear
3:55 PM 59.0 °F - 19.4 °F 22% 30.25 in 10.0 mi NNE 6.9 mph - N/A   Clear
4:15 PM 59.0 °F - 19.4 °F 22% 30.25 in 10.0 mi North 9.2 mph - N/A   Clear
4:35 PM 59.0 °F - 21.2 °F 23% 30.25 in 10.0 mi North 10.4 mph - N/A   Clear
4:55 PM 59.0 °F - 21.2 °F 23% 30.25 in 10.0 mi NNW 6.9 mph - N/A   Clear
5:15 PM 59.0 °F - 23.0 °F 25% 30.25 in 10.0 mi North 6.9 mph - N/A   Clear
5:35 PM 57.2 °F - 23.0 °F 27% 30.25 in 10.0 mi NNW 5.8 mph - N/A   Clear
5:55 PM 55.4 °F - 23.0 °F 29% 30.25 in 10.0 mi North 5.8 mph - N/A   Clear
6:15 PM 51.8 °F - 24.8 °F 35% 30.25 in 10.0 mi North 5.8 mph - N/A   Clear
6:35 PM 48.2 °F - 23.0 °F 37% 30.26 in 10.0 mi North 5.8 mph - N/A   Clear
6:55 PM 48.2 °F - 23.0 °F 37% 30.26 in 10.0 mi Calm Calm - N/A   Clear
7:15 PM 42.8 °F - 23.0 °F 46% 30.26 in 10.0 mi Calm Calm - N/A   Clear
7:35 PM 42.8 °F - 23.0 °F 46% 30.26 in 10.0 mi Calm Calm - N/A   Clear
7:55 PM 37.4 °F 32.8 °F 26.6 °F 65% 30.27 in 10.0 mi South 5.8 mph - N/A   Clear
8:15 PM 37.4 °F 30.8 °F 24.8 °F 60% 30.28 in 10.0 mi South 9.2 mph - N/A   Clear
8:35 PM 37.4 °F 32.1 °F 24.8 °F 60% 30.29 in 10.0 mi SSW 6.9 mph - N/A   Clear
8:55 PM 35.6 °F 30.7 °F 24.8 °F 65% 30.29 in 10.0 mi South 5.8 mph - N/A   Clear
9:15 PM 33.8 °F 28.6 °F 24.8 °F 70% 30.29 in 10.0 mi South 5.8 mph - N/A   Clear
9:35 PM 33.8 °F - 23.0 °F 65% 30.29 in 10.0 mi Calm Calm - N/A   Clear
10:15 PM 35.6 °F - 23.0 °F 60% 30.29 in 10.0 mi Calm Calm - N/A   Clear
10:35 PM 35.6 °F - 23.0 °F 60% 30.29 in 10.0 mi Calm Calm - N/A   Clear
10:55 PM 32.0 °F - 24.8 °F 75% 30.28 in 10.0 mi Calm Calm - N/A   Clear
11:15 PM 32.0 °F 28.7 °F 24.8 °F 75% 30.29 in 10.0 mi ESE 3.5 mph - N/A   Clear
11:35 PM 33.8 °F - 24.8 °F 70% 30.28 in 10.0 mi Calm Calm - N/A   Clear
11:55 PM 32.0 °F - 24.8 °F 75% 30.28 in 10.0 mi Calm Calm - N/A   Clear